Total_Precipitation_Accumulation
0.00 0.00 0.00 0.00 0.01 0.01 0.01 0.01 0.01 0.01 0.00 0.00 0.00 0.00 0.00 0.00 0.00 0.00 0.00 0.00 0.00 0.00 0.00 0.01 0.02 0.03 0.05 0.07 0.08 0.09 0.10 0.10 0.10 0.11 0.11 0.12 0.12 0.13 0.13 0.14 0.15 0.16 0.16
0.00 0.00 0.00 0.01 0.01 0.01 0.01 0.01 0.01 0.01 0.00 0.00 0.00 0.00 0.00 0.00 0.00 0.00 0.00 0.00 0.00 0.00 0.00 0.00 0.01 0.03 0.04 0.06 0.07 0.08 0.08 0.09 0.09 0.10 0.11 0.12 0.13 0.13 0.14 0.15 0.16 0.16 0.17
0.00 0.00 0.00 0.00 0.01 0.00 0.00 0.00 0.00 0.00 0.00 0.00 0.00 0.00 0.00 0.00 0.00 0.00 0.00 0.00 0.00 0.00 0.00 0.00 0.01 0.02 0.02 0.03 0.05 0.05 0.06 0.08 0.09 0.10 0.12 0.13 0.14 0.14 0.15 0.17 0.18 0.19 0.19
0.00 0.00 0.00 0.00 0.00 0.00 0.00 0.00 0.00 0.00 0.00 0.00 0.00 0.00 0.00 0.00 0.00 0.00 0.00 0.00 0.00 0.00 0.00 0.00 0.01 0.01 0.01 0.01 0.02 0.04 0.06 0.08 0.09 0.10 0.11 0.13 0.15 0.16 0.18 0.19 0.21 0.21 0.22
0.00 0.00 0.00 0.00 0.00 0.00 0.00 0.00 0.00 0.00 0.00 0.00 0.00 0.00 0.00 0.00 0.00 0.00 0.00 0.00 0.00 0.00 0.00 0.00 0.00 0.00 0.01 0.01 0.01 0.03 0.05 0.08 0.09 0.10 0.11 0.12 0.15 0.17 0.20 0.24 0.26 0.29 0.30
0.01 0.01 0.00 0.00 0.00 0.00 0.00 0.00 0.00 0.00 0.00 0.00 0.00 0.00 0.00 0.00 0.00 0.00 0.00 0.00 0.00 0.00 0.00 0.00 0.00 0.00 0.01 0.02 0.02 0.03 0.04 0.06 0.08 0.10 0.11 0.13 0.15 0.18 0.22 0.26 0.29 0.33 0.37
0.03 0.01 0.01 0.00 0.00 0.00 0.00 0.00 0.00 0.00 0.00 0.00 0.00 0.00 0.00 0.00 0.00 0.00 0.00 0.00 0.00 0.00 0.00 0.00 0.01 0.01 0.02 0.02 0.02 0.02 0.02 0.04 0.07 0.11 0.12 0.15 0.17 0.21 0.26 0.31 0.33 0.35 0.39
0.08 0.05 0.03 0.02 0.01 0.00 0.00 0.00 0.00 0.00 0.00 0.00 0.00 0.01 0.01 0.01 0.00 0.00 0.00 0.00 0.00 0.00 0.00 0.00 0.01 0.01 0.02 0.02 0.02 0.01 0.01 0.02 0.04 0.09 0.12 0.14 0.16 0.20 0.25 0.31 0.35 0.38 0.42
0.13 0.09 0.06 0.03 0.01 0.01 0.00 0.00 0.00 0.00 0.00 0.00 0.00 0.01 0.02 0.02 0.02 0.01 0.01 0.01 0.01 0.01 0.01 0.00 0.00 0.00 0.01 0.01 0.01 0.00 0.01 0.02 0.03 0.04 0.08 0.14 0.18 0.23 0.27 0.32 0.37 0.41 0.45
0.16 0.12 0.08 0.05 0.03 0.02 0.01 0.01 0.00 0.00 0.00 0.00 0.00 0.00 0.01 0.02 0.02 0.01 0.01 0.01 0.02 0.01 0.01 0.00 0.00 0.00 0.00 0.00 0.00 0.01 0.02 0.04 0.06 0.07 0.10 0.15 0.24 0.33 0.39 0.45 0.50 0.54 0.56
0.14 0.12 0.10 0.08 0.05 0.03 0.02 0.01 0.01 0.00 0.00 0.00 0.00 0.00 0.00 0.00 0.01 0.01 0.00 0.00 0.00 0.00 0.00 0.00 0.00 0.00 0.00 0.00 0.01 0.02 0.04 0.09 0.12 0.15 0.21 0.30 0.38 0.46 0.55 0.62 0.69 0.73 0.76
0.11 0.11 0.09 0.08 0.06 0.05 0.04 0.03 0.02 0.01 0.01 0.00 0.00 0.00 0.00 0.01 0.00 0.01 0.01 0.00 0.00 0.00 0.00 0.00 0.00 0.00 0.01 0.02 0.03 0.04 0.06 0.07 0.11 0.16 0.27 0.40 0.48 0.55 0.61 0.66 0.71 0.76 0.81
0.09 0.09 0.08 0.07 0.07 0.06 0.05 0.04 0.03 0.02 0.01 0.01 0.01 0.01 0.00 0.00 0.00 0.00 0.01 0.00 0.00 0.00 0.00 0.00 0.01 0.03 0.05 0.06 0.06 0.06 0.06 0.05 0.06 0.07 0.14 0.25 0.32 0.40 0.49 0.59 0.70 0.78 0.84
0.10 0.10 0.09 0.08 0.08 0.07 0.05 0.04 0.03 0.02 0.02 0.01 0.01 0.01 0.00 0.00 0.00 0.00 0.01 0.03 0.03 0.01 0.00 0.00 0.01 0.02 0.04 0.06 0.07 0.06 0.05 0.03 0.02 0.03 0.06 0.12 0.16 0.22 0.27 0.34 0.44 0.56 0.69
0.09 0.08 0.08 0.08 0.07 0.06 0.05 0.04 0.03 0.02 0.02 0.01 0.00 0.00 0.00 0.00 0.00 0.00 0.02 0.04 0.04 0.02 0.01 0.00 0.00 0.00 0.01 0.02 0.01 0.02 0.02 0.02 0.03 0.04 0.05 0.06 0.07 0.10 0.14 0.20 0.26 0.34 0.44
0.07 0.07 0.07 0.07 0.06 0.05 0.04 0.03 0.03 0.02 0.01 0.00 0.00 0.00 0.00 0.00 0.00 0.01 0.01 0.01 0.01 0.01 0.01 0.00 0.00 0.00 0.00 0.00 0.00 0.01 0.02 0.02 0.02 0.03 0.04 0.06 0.08 0.10 0.11 0.13 0.17 0.21 0.25
0.05 0.05 0.06 0.06 0.06 0.05 0.04 0.04 0.04 0.02 0.01 0.00 0.00 0.00 0.00 0.00 0.00 0.00 0.00 0.00 0.00 0.00 0.01 0.01 0.00 0.00 0.00 0.00 0.00 0.01 0.01 0.01 0.01 0.03 0.06 0.07 0.09 0.11 0.13 0.14 0.15 0.18 0.22
0.04 0.04 0.04 0.04 0.04 0.04 0.03 0.03 0.03 0.01 0.00 0.00 0.00 0.00 0.00 0.00 0.00 0.00 0.00 0.00 0.00 0.01 0.04 0.05 0.01 0.00 0.00 0.00 0.00 0.01 0.01 0.02 0.02 0.02 0.04 0.06 0.09 0.10 0.11 0.12 0.14 0.18 0.21
0.03 0.03 0.02 0.02 0.02 0.02 0.02 0.02 0.01 0.00 0.00 0.00 0.00 0.00 0.00 0.00 0.00 0.00 0.00 0.00 0.01 0.03 0.06 0.08 0.04 0.02 0.01 0.01 0.02 0.01 0.01 0.01 0.01 0.01 0.02 0.03 0.04 0.07 0.10 0.13 0.14 0.16 0.17
0.02 0.02 0.02 0.01 0.01 0.01 0.01 0.01 0.00 0.00 0.01 0.01 0.00 0.00 0.00 0.00 0.00 0.00 0.00 0.02 0.04 0.06 0.06 0.09 0.11 0.09 0.07 0.03 0.04 0.02 0.01 0.00 0.00 0.01 0.02 0.03 0.04 0.06 0.07 0.07 0.07 0.06 0.06
0.02 0.01 0.02 0.02 0.02 0.03 0.02 0.02 0.02 0.02 0.02 0.02 0.01 0.00 0.00 0.00 0.00 0.01 0.04 0.06 0.07 0.10 0.16 0.22 0.22 0.16 0.09 0.04 0.02 0.01 0.03 0.03 0.03 0.04 0.05 0.03 0.03 0.03 0.02 0.02 0.02 0.02 0.04
0.02 0.02 0.03 0.04 0.05 0.05 0.06 0.05 0.04 0.03 0.02 0.01 0.00 0.00 0.00 0.00 0.00 0.02 0.05 0.07 0.13 0.22 0.31 0.35 0.27 0.16 0.06 0.02 0.03 0.06 0.12 0.18 0.14 0.05 0.06 0.03 0.02 0.01 0.01 0.01 0.02 0.04 0.07
0.04 0.05 0.06 0.07 0.07 0.08 0.07 0.05 0.03 0.01 0.01 0.00 0.00 0.00 0.00 0.00 0.01 0.02 0.03 0.09 0.15 0.22 0.23 0.20 0.13 0.07 0.06 0.07 0.15 0.25 0.23 0.22 0.13 0.03 0.05 0.05 0.02 0.03 0.02 0.02 0.03 0.05 0.06
0.12 0.13 0.13 0.12 0.10 0.07 0.04 0.02 0.01 0.00 0.00 0.00 0.00 0.00 0.00 0.01 0.02 0.05 0.12 0.19 0.12 0.07 0.05 0.04 0.05 0.07 0.09 0.10 0.16 0.23 0.20 0.15 0.06 0.03 0.06 0.10 0.05 0.03 0.02 0.02 0.02 0.04 0.05
0.17 0.15 0.12 0.09 0.05 0.03 0.01 0.00 0.00 0.00 0.00 0.00 0.00 0.00 0.03 0.03 0.04 0.16 0.25 0.21 0.08 0.01 0.01 0.03 0.07 0.07 0.05 0.04 0.06 0.18 0.26 0.27 0.15 0.03 0.03 0.08 0.06 0.05 0.03 0.01 0.01 0.03 0.06
0.13 0.09 0.06 0.03 0.01 0.00 0.00 0.00 0.00 0.00 0.00 0.00 0.01 0.02 0.02 0.04 0.12 0.23 0.19 0.12 0.05 0.02 0.06 0.04 0.02 0.00 0.00 0.00 0.03 0.14 0.41 0.62 0.39 0.17 0.04 0.16 0.16 0.17 0.22 0.04 0.02 0.05 0.07